Weather History for KAQP - June, 2013

Change the Weather History Date:

Wednesday, June 19, 2013

  Actual Average Record
Temperature  
Mean Temperature 76 °F -  
Max Temperature 89 °F 76 °F 89 °F (2013)
Min Temperature 62 °F 54 °F 41 °F (2004)
Cooling Degree Days 10    
Growing Degree Days 26 (Base 50)    
Moisture  
Dew Point 57 °F    
Average Humidity 56    
Maximum Humidity 83    
Minimum Humidity 24    
Precipitation  
Precipitation 0.00 in - - ()
Sea Level Pressure  
Sea Level Pressure 29.93 in    
Wind  
Wind Speed 7 mph (SE)    
Max Wind Speed 13 mph    
Max Gust Speed 10 mph    
Visibility 10 miles    
Events      
Averages and records for this station are not official NWS values.
T = Trace of Precipitation, MM = Missing Value Source: NWS Daily Summary

Daily Weather History Graph

Daily Weather History Graph

Search for Another Location

Airport or City:

Trip Planner

Search our weather history database for the weather conditions in past years. The results will help you decide how hot, cold, wet, or windy it might be!

Date:

Astronomy

Jun. 19, 2013 Rise Set
Actual Time 5:36 AM CDT 9:14 PM CDT
Civil Twilight 4:58 AM CDT 9:52 PM CDT
Nautical Twilight 4:08 AM CDT 10:42 PM CDT
Astronomical Twilight 3:00 AM CDT 11:50 PM CDT
Moon 5:01 PM CDT (6/19) 2:30 AM CDT (6/19)
Length of Visible Light 16h 54m
Length of Day
15h 38m
Waxing Gibbous, 80% of the Moon is Illuminated
Jun 19
Waxing Gibbous
Jun 23
Full
Jun 29
Last Quarter
Jul 8
New
Jul 15
First Quarter

Hourly Weather History & Observations

Time (CDT) Temp. Heat Index Dew Point Humidity Pressure Visibility Wind Dir Wind Speed Gust Speed Precip Events Conditions
12:13 AM 66.2 °F - 57.2 °F 73% 30.00 in 10.0 mi SE 6.9 mph - N/A   Clear
12:34 AM 66.2 °F - 57.2 °F 73% 30.00 in 10.0 mi SE 6.9 mph - N/A   Scattered Clouds
12:53 AM 66.2 °F - 57.2 °F 73% 30.01 in 10.0 mi SE 5.8 mph - N/A   Scattered Clouds
1:14 AM 66.2 °F - 57.2 °F 73% 30.00 in 10.0 mi SE 5.8 mph - N/A   Scattered Clouds
1:33 AM 66.2 °F - 57.2 °F 73% 30.00 in 10.0 mi SE 4.6 mph - N/A   Mostly Cloudy
1:53 AM 66.2 °F - 57.2 °F 73% 29.99 in 10.0 mi SE 8.1 mph - N/A   Scattered Clouds
2:14 AM 64.4 °F - 57.2 °F 77% 29.99 in 10.0 mi SE 6.9 mph - N/A   Scattered Clouds
2:34 AM 64.4 °F - 57.2 °F 77% 29.99 in 10.0 mi SE 5.8 mph - N/A   Clear
2:53 AM 64.4 °F - 57.2 °F 77% 29.99 in 10.0 mi ESE 4.6 mph - N/A   Scattered Clouds
3:13 AM 64.4 °F - 57.2 °F 77% 29.98 in 10.0 mi SE 9.2 mph - N/A   Scattered Clouds
3:33 AM 64.4 °F - 57.2 °F 77% 29.98 in 10.0 mi SE 6.9 mph - N/A   Clear
3:53 AM 64.4 °F - 57.2 °F 77% 29.98 in 10.0 mi SE 6.9 mph - N/A   Clear
4:13 AM 62.6 °F - 57.2 °F 82% 29.98 in 10.0 mi ESE 4.6 mph - N/A   Clear
4:33 AM 62.6 °F - 57.2 °F 82% 29.99 in 10.0 mi ESE 5.8 mph - N/A   Clear
4:53 AM 62.6 °F - 57.2 °F 82% 29.99 in 10.0 mi SE 5.8 mph - N/A   Clear
5:13 AM 62.6 °F - 57.2 °F 82% 29.99 in 10.0 mi SE 5.8 mph - N/A   Clear
5:33 AM 62.6 °F - 57.2 °F 82% 29.99 in 10.0 mi ESE 5.8 mph - N/A   Clear
5:53 AM 62.6 °F - 57.2 °F 82% 29.99 in 10.0 mi ESE 6.9 mph - N/A   Clear
6:13 AM 62.6 °F - 57.2 °F 82% 30.00 in 10.0 mi ESE 5.8 mph - N/A   Clear
6:33 AM 62.6 °F - 57.2 °F 82% 29.99 in 10.0 mi ESE 6.9 mph - N/A   Clear
6:54 AM 64.4 °F - 59.0 °F 83% 29.99 in 10.0 mi ESE 6.9 mph - N/A   Clear
7:13 AM 64.4 °F - 59.0 °F 83% 29.99 in 10.0 mi SE 5.8 mph - N/A   Clear
7:33 AM 66.2 °F - 59.0 °F 78% 29.99 in 10.0 mi SE 6.9 mph - N/A   Clear
7:53 AM 66.2 °F - 59.0 °F 78% 29.99 in 10.0 mi SE 8.1 mph - N/A   Clear
8:14 AM 68.0 °F - 60.8 °F 78% 29.99 in 10.0 mi SE 3.5 mph - N/A   Clear
8:34 AM 69.8 °F - 59.0 °F 68% 29.99 in 10.0 mi SE 6.9 mph - N/A   Clear
8:53 AM 71.6 °F - 60.8 °F 69% 29.99 in 10.0 mi SE 8.1 mph - N/A   Clear
9:14 AM 71.6 °F - 60.8 °F 69% 29.98 in 10.0 mi SSE 6.9 mph - N/A   Clear
9:33 AM 73.4 °F - 60.8 °F 65% 29.98 in 10.0 mi SSE 8.1 mph - N/A   Clear
9:54 AM 75.2 °F - 60.8 °F 61% 29.97 in 10.0 mi SSE 6.9 mph - N/A   Clear
10:13 AM 75.2 °F - 60.8 °F 61% 29.96 in 10.0 mi SSE 6.9 mph - N/A   Clear
10:33 AM 78.8 °F - 60.8 °F 54% 29.96 in 10.0 mi SE 9.2 mph - N/A   Clear
10:53 AM 78.8 °F - 60.8 °F 54% 29.96 in 10.0 mi SSE 8.1 mph - N/A   Clear
11:14 AM 80.6 °F 81.5 °F 60.8 °F 51% 29.95 in 10.0 mi SSE 5.8 mph - N/A   Clear
11:33 AM 80.6 °F 81.5 °F 60.8 °F 51% 29.95 in 10.0 mi SE 6.9 mph - N/A   Clear
11:53 AM 82.4 °F 82.9 °F 60.8 °F 48% 29.95 in 10.0 mi SSE 5.8 mph - N/A   Clear
12:13 PM 82.4 °F 82.9 °F 60.8 °F 48% 29.95 in 10.0 mi SSE 4.6 mph - N/A   Clear
12:33 PM 84.2 °F 83.8 °F 59.0 °F 42% 29.94 in 10.0 mi SE 4.6 mph - N/A   Clear
12:53 PM 82.4 °F 82.9 °F 60.8 °F 48% 29.94 in 10.0 mi ESE 6.9 mph - N/A   Scattered Clouds
1:14 PM 82.4 °F 82.5 °F 59.0 °F 45% 29.93 in 10.0 mi South 4.6 mph - N/A   Mostly Cloudy
1:33 PM 84.2 °F 83.5 °F 57.2 °F 40% 29.93 in 10.0 mi SSE 4.6 mph - N/A   Scattered Clouds
1:53 PM 86.0 °F 84.2 °F 53.6 °F 33% 29.92 in 10.0 mi SE 4.6 mph - N/A   Clear
2:13 PM 87.8 °F 86.1 °F 55.4 °F 33% 29.91 in 10.0 mi South 6.9 mph - N/A   Clear
2:33 PM 84.2 °F 82.8 °F 53.6 °F 35% 29.91 in 10.0 mi South 4.6 mph - N/A   Scattered Clouds
2:53 PM 87.8 °F 86.1 °F 55.4 °F 33% 29.90 in 10.0 mi SSW 9.2 mph - N/A   Clear
3:14 PM 87.8 °F 85.7 °F 53.6 °F 31% 29.89 in 10.0 mi SSE 6.9 mph 10.4 mph N/A   Clear
3:33 PM 87.8 °F - 51.8 °F 29% 29.89 in 10.0 mi SE 12.7 mph - N/A   Scattered Clouds
3:53 PM 87.8 °F - 51.8 °F 29% 29.89 in 10.0 mi SSE 9.2 mph - N/A   Scattered Clouds
4:14 PM 87.8 °F 85.7 °F 53.6 °F 31% 29.89 in 10.0 mi SE 8.1 mph - N/A   Clear
4:33 PM 86.0 °F - 51.8 °F 31% 29.88 in 10.0 mi South 8.1 mph - N/A   Scattered Clouds
4:53 PM 89.6 °F - 48.2 °F 24% 29.88 in 10.0 mi South 6.9 mph - N/A   Scattered Clouds
5:13 PM 87.8 °F - 48.2 °F 25% 29.87 in 10.0 mi SW 8.1 mph - N/A   Clear
5:33 PM 84.2 °F 82.8 °F 53.6 °F 35% 29.87 in 10.0 mi SSE 4.6 mph - N/A   Clear
5:53 PM 84.2 °F 83.0 °F 55.4 °F 37% 29.87 in 10.0 mi SE 3.5 mph - N/A   Clear
6:13 PM 84.2 °F 83.0 °F 55.4 °F 37% 29.86 in 10.0 mi SE 4.6 mph - N/A   Clear
6:33 PM 84.2 °F 83.0 °F 55.4 °F 37% 29.86 in 10.0 mi SE 6.9 mph - N/A   Clear
6:53 PM 84.2 °F 82.8 °F 53.6 °F 35% 29.86 in 10.0 mi SE 5.8 mph - N/A   Clear
7:13 PM 84.2 °F - 51.8 °F 33% 29.86 in 10.0 mi SE 9.2 mph - N/A   Scattered Clouds
7:33 PM 84.2 °F 82.8 °F 53.6 °F 35% 29.86 in 10.0 mi SE 8.1 mph - N/A   Scattered Clouds
7:53 PM 82.4 °F 81.7 °F 55.4 °F 39% 29.85 in 10.0 mi SE 8.1 mph - N/A   Clear
8:14 PM 82.4 °F 82.0 °F 57.2 °F 42% 29.86 in 10.0 mi SSE 8.1 mph - N/A   Scattered Clouds
8:33 PM 82.4 °F 82.0 °F 57.2 °F 42% 29.86 in 10.0 mi SSE 5.8 mph - N/A   Scattered Clouds
8:53 PM 80.6 °F 81.1 °F 59.0 °F 48% 29.86 in 10.0 mi SSE 4.6 mph - N/A   Clear
9:14 PM 78.8 °F - 60.8 °F 54% 29.86 in 10.0 mi SSE 4.6 mph - N/A   Clear
9:34 PM 78.8 °F - 59.0 °F 51% 29.86 in 10.0 mi SE 5.8 mph - N/A   Clear
9:53 PM 78.8 °F - 59.0 °F 51% 29.87 in 10.0 mi SE 5.8 mph - N/A   Clear
10:13 PM 77.0 °F - 59.0 °F 54% 29.88 in 10.0 mi ESE 5.8 mph - N/A   Clear
10:33 PM 77.0 °F - 59.0 °F 54% 29.88 in 10.0 mi ESE 6.9 mph - N/A   Scattered Clouds
10:53 PM 75.2 °F - 59.0 °F 57% 29.88 in 10.0 mi SE 8.1 mph - N/A   Scattered Clouds
11:14 PM 75.2 °F - 57.2 °F 53% 29.88 in 10.0 mi SE 8.1 mph - N/A   Scattered Clouds
11:33 PM 75.2 °F - 57.2 °F 53% 29.87 in 10.0 mi SE 8.1 mph - N/A   Clear
11:54 PM 75.2 °F - 57.2 °F 53% 29.88 in 10.0 mi SSE 6.9 mph - N/A   Clear